Time,TemperatureF,DewpointF,PressureIn,WindDirection,WindDirectionDegrees,WindSpeedMPH,WindSpeedGustMPH,Humidity,HourlyPrecipIn,Conditions,Clouds,dailyrainin,SoftwareType,DateUTC
2013-05-18 00:02:00,70.0,11.0,29.85,ESE,116,0.0,3.0,10,0.01,,,0.18,,2013-05-18 05:02:00,
2013-05-18 00:22:00,71.0,12.0,29.85,ESE,116,0.0,0.0,10,0.01,,,0.19,,2013-05-18 05:22:00,
2013-05-18 00:31:00,71.0,12.0,29.85,ESE,116,0.0,0.0,10,0.19,,,0.19,,2013-05-18 05:31:00,
2013-05-18 00:51:00,71.0,12.0,29.85,ESE,117,0.0,0.0,10,0.19,,,0.19,,2013-05-18 05:51:00,
2013-05-18 01:02:00,71.0,12.0,29.85,ESE,117,0.0,0.0,10,0.19,,,0.19,,2013-05-18 06:02:00,
2013-05-18 01:11:00,71.0,12.0,29.84,ESE,117,0.0,1.0,10,0.00,,,0.00,,2013-05-18 06:11:00,
2013-05-18 01:22:00,71.0,12.0,29.84,ESE,117,0.0,1.0,10,0.00,,,0.00,,2013-05-18 06:22:00,
2013-05-18 01:32:00,71.0,12.0,29.83,ESE,102,3.0,3.0,10,0.00,,,0.00,,2013-05-18 06:32:00,
2013-05-18 01:52:00,71.0,12.0,29.83,SW,226,4.0,4.0,10,0.00,,,0.00,,2013-05-18 06:52:00,
2013-05-18 02:01:00,71.0,12.0,29.83,SW,227,1.0,2.0,10,0.00,,,0.00,,2013-05-18 07:01:00,
2013-05-18 02:11:00,71.0,12.0,29.83,SW,229,0.0,7.0,10,0.00,,,0.00,,2013-05-18 07:11:00,
2013-05-18 02:21:00,71.0,12.0,29.83,SW,229,0.0,7.0,10,0.00,,,0.00,,2013-05-18 07:21:00,
2013-05-18 02:31:00,71.0,12.0,29.83,SW,230,0.0,6.0,10,0.00,,,0.00,,2013-05-18 07:31:00,
2013-05-18 02:42:00,71.0,12.0,29.83,SW,227,2.0,6.0,10,0.00,,,0.00,,2013-05-18 07:42:00,
2013-05-18 02:52:00,71.0,12.0,29.83,SW,227,2.0,6.0,10,0.00,,,0.00,,2013-05-18 07:52:00,
2013-05-18 03:01:00,70.0,11.0,29.83,SW,229,0.0,6.0,10,0.00,,,0.00,,2013-05-18 08:01:00,
2013-05-18 03:21:00,70.0,11.0,29.83,WSW,241,0.0,3.0,10,0.00,,,0.00,,2013-05-18 08:21:00,
2013-05-18 03:32:00,70.0,11.0,29.83,WSW,244,0.0,5.0,10,0.00,,,0.00,,2013-05-18 08:32:00,
2013-05-18 03:52:00,70.0,11.0,29.83,WSW,243,0.0,5.0,10,0.00,,,0.00,,2013-05-18 08:52:00,
2013-05-18 04:02:00,70.0,11.0,29.83,WSW,243,0.0,5.0,10,0.00,,,0.00,,2013-05-18 09:02:00,
2013-05-18 04:22:00,71.0,12.0,29.83,WSW,243,0.0,3.0,10,0.00,,,0.00,,2013-05-18 09:22:00,
2013-05-18 04:32:00,71.0,12.0,29.83,WSW,241,0.0,1.0,10,0.00,,,0.00,,2013-05-18 09:32:00,
2013-05-18 04:53:00,71.0,12.0,29.84,WSW,243,0.0,1.0,10,0.00,,,0.00,,2013-05-18 09:53:00,
2013-05-18 05:03:00,71.0,12.0,29.85,WSW,241,0.0,1.0,10,0.00,,,0.00,,2013-05-18 10:03:00,
2013-05-18 05:12:00,71.0,12.0,29.85,WSW,241,0.0,0.0,10,0.00,,,0.00,,2013-05-18 10:12:00,
2013-05-18 05:22:00,71.0,12.0,29.85,WSW,241,0.0,0.0,10,0.00,,,0.00,,2013-05-18 10:22:00,
2013-05-18 05:33:00,71.0,12.0,29.85,WSW,241,0.0,2.0,10,0.00,,,0.00,,2013-05-18 10:33:00,
2013-05-18 05:52:00,71.0,12.0,29.85,WSW,241,0.0,2.0,10,0.00,,,0.00,,2013-05-18 10:52:00,
2013-05-18 06:03:00,71.0,12.0,29.85,WSW,240,0.0,2.0,10,0.00,,,0.00,,2013-05-18 11:03:00,
2013-05-18 06:12:00,71.0,12.0,29.85,WSW,240,0.0,1.0,10,0.00,,,0.00,,2013-05-18 11:12:00,
2013-05-18 06:22:00,71.0,12.0,29.85,WSW,240,0.0,1.0,10,0.00,,,0.00,,2013-05-18 11:22:00,
2013-05-18 06:33:00,72.0,12.0,29.86,WSW,240,0.0,0.0,10,0.00,,,0.00,,2013-05-18 11:33:00,
2013-05-18 06:52:00,72.0,12.0,29.86,SW,229,0.0,0.0,10,0.00,,,0.00,,2013-05-18 11:52:00,
2013-05-18 07:01:00,72.0,12.0,29.86,SW,229,0.0,0.0,10,0.00,,,0.00,,2013-05-18 12:01:00,
2013-05-18 07:12:00,72.0,12.0,29.87,SW,229,0.0,2.0,10,0.00,,,0.00,,2013-05-18 12:12:00,
2013-05-18 07:23:00,72.0,12.0,29.87,SW,229,0.0,2.0,10,0.00,,,0.00,,2013-05-18 12:23:00,
2013-05-18 07:33:00,72.0,12.0,29.87,SW,229,0.0,1.0,10,0.00,,,0.00,,2013-05-18 12:33:00,
2013-05-18 07:52:00,72.0,12.0,29.87,SW,229,0.0,1.0,10,0.00,,,0.00,,2013-05-18 12:52:00,
2013-05-18 08:01:00,72.0,12.0,29.88,South,172,0.0,1.0,10,0.00,,,0.00,,2013-05-18 13:01:00,
2013-05-18 08:21:00,73.0,13.0,29.88,South,172,0.0,2.0,10,0.00,,,0.00,,2013-05-18 13:21:00,
2013-05-18 08:33:00,73.0,13.0,29.89,South,174,0.0,2.0,10,0.00,,,0.00,,2013-05-18 13:33:00,
2013-05-18 08:52:00,73.0,13.0,29.89,SSW,205,0.0,2.0,10,0.00,,,0.00,,2013-05-18 13:52:00,
2013-05-18 09:03:00,73.0,13.0,29.90,SSW,205,0.0,2.0,10,0.00,,,0.00,,2013-05-18 14:03:00,
2013-05-18 09:12:00,73.0,13.0,29.90,SSW,212,0.0,3.0,10,0.00,,,0.00,,2013-05-18 14:12:00,
2013-05-18 09:22:00,73.0,13.0,29.90,SSW,212,0.0,3.0,10,0.00,,,0.00,,2013-05-18 14:22:00,
2013-05-18 09:32:00,73.0,13.0,29.90,SSW,212,0.0,4.0,10,0.00,,,0.00,,2013-05-18 14:32:00,
2013-05-18 09:54:00,74.0,14.0,29.89,SSW,212,2.0,4.0,10,0.00,,,0.00,,2013-05-18 14:54:00,
2013-05-18 10:03:00,75.0,75.0,29.89,West,277,1.0,4.0,99,0.00,,,0.00,,2013-05-18 15:03:00,
2013-05-18 10:33:00,75.0,71.0,29.88,SW,226,3.0,6.0,86,0.00,,,0.00,,2013-05-18 15:33:00,
2013-05-18 10:43:00,75.0,71.0,29.88,SW,226,3.0,6.0,86,0.00,,,0.00,,2013-05-18 15:43:00,
2013-05-18 10:53:00,77.0,71.0,29.88,West,271,5.0,6.0,83,0.00,,,0.00,,2013-05-18 15:53:00,
2013-05-18 11:02:00,77.0,71.0,29.89,West,278,2.0,6.0,81,0.00,,,0.00,,2013-05-18 16:02:00,
2013-05-18 11:13:00,77.0,71.0,29.89,West,278,2.0,6.0,81,0.00,,,0.00,,2013-05-18 16:13:00,
2013-05-18 11:22:00,78.0,72.0,29.89,West,278,2.0,8.0,82,0.00,,,0.00,,2013-05-18 16:22:00,
2013-05-18 11:33:00,78.0,72.0,29.89,West,278,2.0,8.0,82,0.00,,,0.00,,2013-05-18 16:33:00,
2013-05-18 11:42:00,78.0,72.0,29.89,West,278,2.0,8.0,82,0.00,,,0.00,,2013-05-18 16:42:00,
2013-05-18 11:52:00,78.0,71.0,29.89,NW,320,2.0,6.0,80,0.00,,,0.00,,2013-05-18 16:52:00,
2013-05-18 12:02:00,77.0,70.0,29.89,NNE,28,5.0,6.0,80,0.00,,,0.00,,2013-05-18 17:02:00,
2013-05-18 12:12:00,77.0,70.0,29.89,NNE,28,5.0,6.0,80,0.00,,,0.00,,2013-05-18 17:12:00,
2013-05-18 12:22:00,77.0,70.0,29.89,WNW,282,2.0,6.0,80,0.00,,,0.00,,2013-05-18 17:22:00,
2013-05-18 12:32:00,78.0,71.0,29.89,NW,318,5.0,7.0,79,0.00,,,0.00,,2013-05-18 17:32:00,
2013-05-18 12:42:00,78.0,71.0,29.89,NW,318,5.0,7.0,79,0.00,,,0.00,,2013-05-18 17:42:00,
2013-05-18 12:52:00,79.0,72.0,29.88,ENE,72,2.0,7.0,80,0.00,,,0.00,,2013-05-18 17:52:00,
2013-05-18 13:01:00,78.0,70.0,29.88,NW,319,3.0,7.0,76,0.00,,,0.00,,2013-05-18 18:01:00,
2013-05-18 13:12:00,78.0,70.0,29.88,NW,319,3.0,7.0,76,0.00,,,0.00,,2013-05-18 18:12:00,
2013-05-18 13:21:00,79.0,70.0,29.87,NW,326,1.0,7.0,75,0.00,,,0.00,,2013-05-18 18:21:00,
2013-05-18 13:32:00,80.0,69.0,29.87,NNW,347,0.0,6.0,69,0.00,,,0.00,,2013-05-18 18:32:00,
2013-05-18 13:42:00,79.0,68.0,29.87,NW,311,0.0,6.0,69,0.00,,,0.00,,2013-05-18 18:42:00,
2013-05-18 13:52:00,79.0,68.0,29.87,NW,311,0.0,6.0,69,0.00,,,0.00,,2013-05-18 18:52:00,
2013-05-18 14:02:00,79.0,69.0,29.86,WNW,299,1.0,6.0,72,0.00,,,0.00,,2013-05-18 19:02:00,
2013-05-18 14:12:00,79.0,69.0,29.86,WNW,299,1.0,6.0,72,0.00,,,0.00,,2013-05-18 19:12:00,
2013-05-18 14:22:00,80.0,68.0,29.86,NNW,333,3.0,7.0,68,0.00,,,0.00,,2013-05-18 19:22:00,
2013-05-18 14:32:00,80.0,69.0,29.86,North,354,2.0,7.0,70,0.00,,,0.00,,2013-05-18 19:32:00,
2013-05-18 14:42:00,81.0,69.0,29.85,North,356,0.0,7.0,67,0.00,,,0.00,,2013-05-18 19:42:00,
2013-05-18 14:52:00,81.0,69.0,29.85,North,356,0.0,7.0,67,0.00,,,0.00,,2013-05-18 19:52:00,
2013-05-18 15:02:00,80.0,69.0,29.86,SSE,147,2.0,7.0,69,0.00,,,0.00,,2013-05-18 20:02:00,
2013-05-18 15:11:00,80.0,69.0,29.86,SSE,147,2.0,7.0,69,0.00,,,0.00,,2013-05-18 20:11:00,
2013-05-18 15:22:00,80.0,70.0,29.85,SE,145,0.0,7.0,71,0.00,,,0.00,,2013-05-18 20:22:00,
2013-05-18 15:32:00,80.0,67.0,29.85,NE,40,1.0,7.0,65,0.00,,,0.00,,2013-05-18 20:32:00,
2013-05-18 15:42:00,80.0,67.0,29.85,NE,40,1.0,7.0,65,0.00,,,0.00,,2013-05-18 20:42:00,
2013-05-18 15:52:00,80.0,68.0,29.85,South,178,2.0,7.0,67,0.00,,,0.00,,2013-05-18 20:52:00,
2013-05-18 16:01:00,80.0,66.0,29.84,ENE,71,4.0,7.0,62,0.00,,,0.00,,2013-05-18 21:01:00,
2013-05-18 16:12:00,80.0,66.0,29.84,ENE,71,4.0,7.0,62,0.00,,,0.00,,2013-05-18 21:12:00,
2013-05-18 16:21:00,80.0,66.0,29.84,NE,54,1.0,7.0,62,0.00,,,0.00,,2013-05-18 21:21:00,
2013-05-18 16:32:00,80.0,68.0,29.83,ENE,73,2.0,8.0,67,0.00,,,0.00,,2013-05-18 21:32:00,
2013-05-18 16:43:00,80.0,68.0,29.83,ENE,73,2.0,8.0,67,0.00,,,0.00,,2013-05-18 21:43:00,
2013-05-18 16:53:00,81.0,68.0,29.83,ENE,65,2.0,8.0,64,0.00,,,0.00,,2013-05-18 21:53:00,
2013-05-18 17:03:00,83.0,68.0,29.83,East,97,2.0,8.0,60,0.00,,,0.00,,2013-05-18 22:03:00,
2013-05-18 17:12:00,82.0,67.0,29.83,NNE,21,0.0,6.0,61,0.00,,,0.00,,2013-05-18 22:12:00,
2013-05-18 17:23:00,82.0,67.0,29.83,NNE,21,0.0,6.0,61,0.00,,,0.00,,2013-05-18 22:23:00,
2013-05-18 17:33:00,81.0,66.0,29.83,NNE,20,1.0,3.0,61,0.00,,,0.00,,2013-05-18 22:33:00,
2013-05-18 17:42:00,81.0,68.0,29.83,NNE,28,0.0,3.0,65,0.00,,,0.00,,2013-05-18 22:42:00,
2013-05-18 17:52:00,81.0,68.0,29.83,NNE,28,0.0,3.0,65,0.00,,,0.00,,2013-05-18 22:52:00,
2013-05-18 18:01:00,80.0,68.0,29.83,NE,51,0.0,3.0,66,0.00,,,0.00,,2013-05-18 23:01:00,
2013-05-18 18:12:00,79.0,66.0,29.83,NNE,25,2.0,3.0,65,0.00,,,0.00,,2013-05-18 23:12:00,
2013-05-18 18:22:00,79.0,66.0,29.83,NNE,25,2.0,3.0,65,0.00,,,0.00,,2013-05-18 23:22:00,
2013-05-18 18:32:00,79.0,67.0,29.83,SSE,164,3.0,5.0,67,0.00,,,0.00,,2013-05-18 23:32:00,
2013-05-18 18:41:00,79.0,67.0,29.83,SSE,164,3.0,5.0,67,0.00,,,0.00,,2013-05-18 23:41:00,
2013-05-18 18:52:00,79.0,68.0,29.83,South,184,2.0,5.0,69,0.00,,,0.00,,2013-05-18 23:52:00,
2013-05-18 19:01:00,78.0,67.0,29.83,South,182,2.0,5.0,69,0.00,,,0.00,,2013-05-19 00:01:00,
2013-05-18 19:11:00,78.0,67.0,29.83,South,182,2.0,5.0,69,0.00,,,0.00,,2013-05-19 00:11:00,
2013-05-18 19:21:00,77.0,68.0,29.83,SSW,209,3.0,5.0,74,0.00,,,0.00,,2013-05-19 00:21:00,
2013-05-18 19:32:00,76.0,68.0,29.83,ESE,112,3.0,7.0,76,0.00,,,0.00,,2013-05-19 00:32:00,
2013-05-18 19:41:00,76.0,68.0,29.83,ESE,112,3.0,7.0,76,0.00,,,0.00,,2013-05-19 00:41:00,
2013-05-18 19:51:00,76.0,68.0,29.83,ESE,104,3.0,7.0,77,0.00,,,0.00,,2013-05-19 00:51:00,
2013-05-18 20:01:00,75.0,68.0,29.83,ESE,104,2.0,7.0,78,0.00,,,0.00,,2013-05-19 01:01:00,
2013-05-18 20:11:00,75.0,68.0,29.83,ESE,104,2.0,7.0,78,0.00,,,0.00,,2013-05-19 01:11:00,
2013-05-18 20:21:00,75.0,68.0,29.83,ESE,104,0.0,7.0,78,0.00,,,0.00,,2013-05-19 01:21:00,
2013-05-18 20:32:00,74.0,67.0,29.83,ESE,104,0.0,5.0,79,0.00,,,0.00,,2013-05-19 01:32:00,
2013-05-18 20:42:00,74.0,67.0,29.83,ESE,104,0.0,5.0,79,0.00,,,0.00,,2013-05-19 01:42:00,
2013-05-18 20:52:00,74.0,67.0,29.83,ESE,104,1.0,5.0,80,0.00,,,0.00,,2013-05-19 01:52:00,
2013-05-18 21:01:00,74.0,68.0,29.83,ESE,104,1.0,5.0,81,0.00,,,0.00,,2013-05-19 02:01:00,
2013-05-18 21:11:00,73.0,67.0,29.84,ESE,104,0.0,3.0,82,0.00,,,0.00,,2013-05-19 02:11:00,
2013-05-18 21:21:00,73.0,67.0,29.84,ESE,104,0.0,3.0,82,0.00,,,0.00,,2013-05-19 02:21:00,
2013-05-18 21:32:00,73.0,67.0,29.83,ESE,104,0.0,2.0,82,0.00,,,0.00,,2013-05-19 02:32:00,
2013-05-18 21:42:00,73.0,67.0,29.83,ESE,104,0.0,2.0,82,0.00,,,0.00,,2013-05-19 02:42:00,
2013-05-18 21:52:00,73.0,67.0,29.84,ESE,104,0.0,2.0,82,0.00,,,0.00,,2013-05-19 02:52:00,
2013-05-18 22:01:00,73.0,67.0,29.84,ESE,104,1.0,2.0,81,0.00,,,0.00,,2013-05-19 03:01:00,
2013-05-18 22:11:00,73.0,66.0,29.84,ESE,104,0.0,1.0,80,0.00,,,0.00,,2013-05-19 03:11:00,
2013-05-18 22:21:00,73.0,66.0,29.84,ESE,104,0.0,1.0,80,0.00,,,0.00,,2013-05-19 03:21:00,
2013-05-18 22:33:00,73.0,67.0,29.83,ESE,104,0.0,3.0,81,0.00,,,0.00,,2013-05-19 03:33:00,
2013-05-18 22:42:00,73.0,67.0,29.83,ESE,104,0.0,3.0,81,0.00,,,0.00,,2013-05-19 03:42:00,
2013-05-18 22:53:00,73.0,67.0,29.83,ESE,104,0.0,3.0,82,0.00,,,0.00,,2013-05-19 03:53:00,
2013-05-18 23:02:00,72.0,67.0,29.83,ESE,104,0.0,3.0,83,0.00,,,0.00,,2013-05-19 04:02:00,
2013-05-18 23:12:00,72.0,67.0,29.83,ESE,104,0.0,3.0,83,0.00,,,0.00,,2013-05-19 04:12:00,
2013-05-18 23:23:00,72.0,67.0,29.83,ESE,103,0.0,3.0,85,0.00,,,0.00,,2013-05-19 04:23:00,
2013-05-18 23:33:00,72.0,68.0,29.83,ESE,104,0.0,2.0,87,0.00,,,0.00,,2013-05-19 04:33:00,
2013-05-18 23:42:00,72.0,68.0,29.83,ESE,104,0.0,2.0,87,0.00,,,0.00,,2013-05-19 04:42:00,
2013-05-18 23:52:00,72.0,68.0,29.82,SE,144,1.0,2.0,86,0.00,,,0.00,,2013-05-19 04:52:00,